Regional Weather Roundup
Issued by NWS State College, PA

Home | Current Version | Previous Version | Graphics & Text | Print | Product List | Glossary Off
Versions: 1 2 3 4 5 6 7 8 9 10 11 12 13 14 15 16 17 18 19 20 21 22 23 24 25 26 27 28 29 30 31 32 33 34 35 36 37 38 39 40 41 42 43 44 45 46 47 48 49 50

000
ASUS41 KCTP 191503
RWRCTP

REGIONAL WEATHER ROUNDUP
NATIONAL WEATHER SERVICE STATE COLLEGE PA
1000 AM EST SUN FEB 19 2017

Note: "fair" indicates few or no clouds below 12,000 feet with no
significant weather and/or obstructions to visibility.

* = STATION THAT DOES NOT REPORT PRECIPITATION /E.G. RAIN...SNOW...ETC/
    THUNDER OR FOG.

PAZ002>004-007>009-013>016-020>023-029>032-191600-
WESTERN PENNSYLVANIA

CITY           SKY/WX    TMP DP  RH WIND       PRES   REMARKS
ERIE           SUNNY     48  38  68 W10       29.95R
MEADVILLE      SUNNY     47  40  76 W9        29.94R
FRANKLIN*      SUNNY     48  39  71 W8        29.96R
NEW CASTLE     FAIR      50  43  77 W7        29.98R
BEAVER COUNTY  NOT AVBL
BUTLER*        MOSUNNY   48  43  81 SW10      29.98S
PITTSBURGH INT PTSUNNY   50  44  80 W8        29.99R
PITTSBURGH     CLOUDY    50  42  74 W12       29.98R
INDIANA*       CLOUDY    48  45  87 W10       29.99S
LATROBE        CLOUDY    50  45  81 W12       30.00R
WASHINGTON CO* CLOUDY    50  43  76 SW8G16    30.02R
$$

PAZ004>006-010>012-017>019-024>028-033>037-041-042-045-046-049>053-191600-
CENTRAL PENNSYLVANIA

CITY           SKY/WX    TMP DP  RH WIND       PRES   REMARKS
BRADFORD       SUNNY     47  39  74 VRB7      29.90R
DUBOIS         CLOUDY    45  40  82 W12       29.93R HAZE
CLEARFIELD       N/A    N/A N/A N/A MISG      29.94R
JOHNSTOWN      CLOUDY    45  42  89 W14       29.95R
ALTOONA        CLOUDY    53  43  68 W9        29.96R
STATE COLLEGE  PTSUNNY   50  41  71 W10       29.92R
WILLIAMSPORT   PTSUNNY   48  40  73 W3        29.89R
SELINSGROVE    MOSUNNY   57  43  59 W12G18    29.90R
FT INDIANTOWN  SUNNY     58  42  54 W8G18     29.88R
CAPITAL CITY   SUNNY     62  41  46 W10G18    29.89R
HARRISBURG     MOSUNNY   60  43  53 NW13      29.89R
YORK           SUNNY     60  43  53 NW15      29.90R
$$

PAZ038>040-043-044-047-048-054-055-060>062-067>071-191600-
EASTERN PENNSYLVANIA

CITY           SKY/WX    TMP DP  RH WIND       PRES   REMARKS
SCRANTON       CLOUDY    54  38  54 SW10      29.85R
MOUNT POCONO   PTSUNNY   48  37  65 W14       29.82R
ALLENTOWN      MOSUNNY   59  39  47 W13       29.85R
QUAKERTOWN*    SUNNY     59  39  47 NW9       29.86S
READING        SUNNY     60  43  53 W14       29.87R
LANCASTER      SUNNY     60  44  55 W12       29.88R
COATESVILLE    CLOUDY    59  41  51 NW13      29.89S
POTTSTOWN      MOSUNNY   59  40  49 W12G20    29.88R
BLUE BELL      CLOUDY    57  41  54 W7        29.85S
DOYLESTOWN     MOSUNNY   62  40  44 W13       29.85R
WILLOW GROVE   NOT AVBL
NORTH PHILA    CLOUDY    61  40  45 W12       29.87R
PHILADELPHIA   CLOUDY    60  39  45 NW10      29.88R
$$




USA.gov is the U.S. government's official web portal to all federal, state and local government web resources and services.